Time,TemperatureF,DewpointF,PressureIn,WindDirection,WindDirectionDegrees,WindSpeedMPH,WindSpeedGustMPH,Humidity,HourlyPrecipIn,Conditions,Clouds,dailyrainin,SoftwareType,DateUTC
2013-11-18 00:11:00,21.0,19.0,29.88,WNW,303,0.0,0.0,91,0.00,,,0.01,,2013-11-18 07:11:00,
2013-11-18 00:21:00,21.0,19.0,29.87,WNW,303,0.0,0.0,90,0.00,,,0.01,,2013-11-18 07:21:00,
2013-11-18 00:42:00,20.0,18.0,29.87,WNW,303,2.0,4.0,90,0.00,,,0.01,,2013-11-18 07:42:00,
2013-11-18 00:52:00,20.0,18.0,29.88,WNW,303,0.0,3.0,90,0.00,,,0.01,,2013-11-18 07:52:00,
2013-11-18 01:11:00,20.0,18.0,29.88,WNW,303,2.0,5.0,91,0.00,,,0.01,,2013-11-18 08:11:00,
2013-11-18 01:22:00,20.0,18.0,29.88,WNW,303,2.0,4.0,91,0.00,,,0.01,,2013-11-18 08:22:00,
2013-11-18 01:42:00,20.0,18.0,29.87,WNW,303,0.0,0.0,91,0.00,,,0.01,,2013-11-18 08:42:00,
2013-11-18 01:52:00,20.0,18.0,29.87,WNW,303,0.0,0.0,91,0.00,,,0.01,,2013-11-18 08:52:00,
2013-11-18 02:12:00,20.0,18.0,29.88,WNW,303,0.0,0.0,91,0.00,,,0.01,,2013-11-18 09:12:00,
2013-11-18 02:22:00,19.0,17.0,29.87,WNW,303,2.0,4.0,91,0.00,,,0.01,,2013-11-18 09:22:00,
2013-11-18 02:43:00,20.0,18.0,29.88,SSW,199,4.0,6.0,92,0.00,,,0.01,,2013-11-18 09:43:00,
2013-11-18 02:53:00,20.0,18.0,29.88,SSW,194,3.0,4.0,92,0.00,,,0.01,,2013-11-18 09:53:00,
2013-11-18 03:13:00,20.0,18.0,29.88,SSW,195,0.0,3.0,91,0.00,,,0.01,,2013-11-18 10:13:00,
2013-11-18 03:23:00,19.0,17.0,29.87,SSW,195,0.0,0.0,91,0.00,,,0.01,,2013-11-18 10:23:00,
2013-11-18 03:53:00,19.0,17.0,29.87,SSW,195,0.0,0.0,91,0.00,,,0.01,,2013-11-18 10:53:00,
2013-11-18 04:22:00,18.0,16.0,29.86,SSW,195,0.0,0.0,91,0.00,,,0.01,,2013-11-18 11:22:00,
2013-11-18 04:52:00,17.0,15.0,29.86,SSW,195,0.0,0.0,91,0.00,,,0.01,,2013-11-18 11:52:00,
2013-11-18 05:12:00,18.0,16.0,29.86,SSW,194,0.0,0.0,92,0.00,,,0.01,,2013-11-18 12:12:00,
2013-11-18 05:22:00,18.0,16.0,29.86,SSW,195,0.0,0.0,92,0.00,,,0.01,,2013-11-18 12:22:00,
2013-11-18 05:42:00,18.0,16.0,29.86,SSW,195,0.0,0.0,92,0.00,,,0.01,,2013-11-18 12:42:00,
2013-11-18 05:52:00,19.0,17.0,29.86,SSW,195,0.0,0.0,92,0.00,,,0.01,,2013-11-18 12:52:00,
2013-11-18 06:11:00,19.0,17.0,29.87,SSW,195,0.0,0.0,93,0.00,,,0.01,,2013-11-18 13:11:00,
2013-11-18 06:21:00,21.0,19.0,29.87,SSW,195,0.0,0.0,92,0.00,,,0.01,,2013-11-18 13:21:00,
2013-11-18 06:42:00,20.0,18.0,29.88,SSW,195,0.0,0.0,91,0.00,,,0.01,,2013-11-18 13:42:00,
2013-11-18 06:52:00,19.0,17.0,29.88,SSW,194,2.0,5.0,90,0.00,,,0.01,,2013-11-18 13:52:00,
2013-11-18 07:11:00,18.0,16.0,29.88,SSW,193,2.0,5.0,90,0.00,,,0.01,,2013-11-18 14:11:00,
2013-11-18 07:52:00,18.0,16.0,29.88,SSW,193,1.0,3.0,91,0.00,,,0.01,,2013-11-18 14:52:00,
2013-11-18 08:11:00,18.0,16.0,29.88,SSW,193,0.0,3.0,91,0.00,,,0.01,,2013-11-18 15:11:00,
2013-11-18 08:43:00,22.0,20.0,29.89,SSW,193,0.0,2.0,93,0.00,,,0.01,,2013-11-18 15:43:00,
2013-11-18 08:53:00,22.0,20.0,29.89,SSW,193,0.0,0.0,92,0.00,,,0.01,,2013-11-18 15:53:00,
2013-11-18 09:23:00,25.0,23.0,29.90,SSW,193,0.0,0.0,93,0.00,,,0.01,,2013-11-18 16:23:00,
2013-11-18 09:43:00,27.0,25.0,29.90,SSW,193,2.0,6.0,93,0.00,,,0.01,,2013-11-18 16:43:00,
2013-11-18 09:52:00,28.0,26.0,29.90,SSW,193,2.0,5.0,92,0.00,,,0.01,,2013-11-18 16:52:00,
2013-11-18 10:12:00,30.0,27.0,29.90,South,185,2.0,6.0,90,0.00,,,0.01,,2013-11-18 17:12:00,
2013-11-18 10:22:00,31.0,28.0,29.90,South,180,3.0,6.0,88,0.00,,,0.01,,2013-11-18 17:22:00,
2013-11-18 10:43:00,32.0,28.0,29.90,South,175,3.0,6.0,86,0.00,,,0.01,,2013-11-18 17:43:00,
2013-11-18 10:52:00,33.0,28.0,29.90,SSE,159,3.0,8.0,82,0.00,,,0.01,,2013-11-18 17:52:00,
2013-11-18 11:12:00,34.0,29.0,29.90,SSE,155,1.0,4.0,81,0.00,,,0.01,,2013-11-18 18:12:00,
2013-11-18 11:23:00,36.0,29.0,29.90,SSE,156,3.0,6.0,77,0.00,,,0.01,,2013-11-18 18:23:00,
2013-11-18 11:52:00,38.0,30.0,29.88,SSE,163,2.0,9.0,72,0.00,,,0.01,,2013-11-18 18:52:00,
2013-11-18 12:11:00,40.0,30.0,29.88,South,169,2.0,10.0,68,0.00,,,0.01,,2013-11-18 19:11:00,
2013-11-18 12:21:00,41.0,30.0,29.88,SSE,164,1.0,6.0,65,0.00,,,0.01,,2013-11-18 19:21:00,
2013-11-18 12:42:00,42.0,30.0,29.87,SSW,192,2.0,8.0,61,0.00,,,0.01,,2013-11-18 19:42:00,
2013-11-18 13:11:00,45.0,29.0,29.86,South,175,6.0,10.0,54,0.00,,,0.01,,2013-11-18 20:11:00,
2013-11-18 13:22:00,46.0,29.0,29.85,South,179,5.0,8.0,52,0.00,,,0.01,,2013-11-18 20:22:00,
2013-11-18 13:42:00,46.0,28.0,29.85,South,189,6.0,9.0,49,0.00,,,0.01,,2013-11-18 20:42:00,
2013-11-18 13:52:00,47.0,28.0,29.84,SSW,194,5.0,7.0,47,0.00,,,0.01,,2013-11-18 20:52:00,
2013-11-18 14:11:00,48.0,29.0,29.84,South,191,6.0,9.0,47,0.00,,,0.01,,2013-11-18 21:11:00,
2013-11-18 14:22:00,48.0,29.0,29.83,South,190,2.0,7.0,47,0.00,,,0.01,,2013-11-18 21:22:00,
2013-11-18 14:54:00,49.0,29.0,29.83,South,189,2.0,5.0,46,0.00,,,0.00,,2013-11-18 21:54:00,
2013-11-18 15:13:00,49.0,29.0,29.82,South,179,3.0,8.0,46,0.00,,,0.00,,2013-11-18 22:13:00,
2013-11-18 15:22:00,49.0,30.0,29.82,South,178,1.0,5.0,47,0.00,,,0.00,,2013-11-18 22:22:00,
2013-11-18 15:52:00,47.0,29.0,29.81,South,178,0.0,3.0,49,0.00,,,0.00,,2013-11-18 22:52:00,
2013-11-18 16:12:00,45.0,27.0,29.81,South,178,0.0,4.0,50,0.00,,,0.00,,2013-11-18 23:12:00,
2013-11-18 16:21:00,44.0,28.0,29.81,South,178,0.0,5.0,53,0.00,,,0.00,,2013-11-18 23:21:00,
2013-11-18 16:42:00,43.0,28.0,29.82,South,178,2.0,5.0,55,0.00,,,0.00,,2013-11-18 23:42:00,
2013-11-18 16:52:00,42.0,28.0,29.80,South,178,0.0,2.0,57,0.00,,,0.00,,2013-11-18 23:52:00,
2013-11-18 17:11:00,41.0,28.0,29.80,South,178,0.0,0.0,59,0.00,,,0.00,,2013-11-19 00:11:00,
2013-11-18 17:21:00,40.0,28.0,29.80,South,178,0.0,0.0,61,0.00,,,0.00,,2013-11-19 00:21:00,
2013-11-18 17:42:00,39.0,27.0,29.80,South,178,0.0,0.0,62,0.00,,,0.00,,2013-11-19 00:42:00,
2013-11-18 17:52:00,39.0,27.0,29.80,South,178,0.0,0.0,63,0.00,,,0.00,,2013-11-19 00:52:00,
2013-11-18 18:21:00,37.0,27.0,29.79,South,178,0.0,0.0,67,0.00,,,0.00,,2013-11-19 01:21:00,
2013-11-18 18:42:00,37.0,27.0,29.78,South,178,0.0,0.0,67,0.00,,,0.00,,2013-11-19 01:42:00,
2013-11-18 18:52:00,36.0,27.0,29.78,South,178,0.0,0.0,69,0.00,,,0.00,,2013-11-19 01:52:00,
2013-11-18 19:12:00,35.0,26.0,29.78,South,178,2.0,3.0,69,0.00,,,0.00,,2013-11-19 02:12:00,
2013-11-18 19:22:00,35.0,26.0,29.77,South,178,0.0,3.0,68,0.00,,,0.00,,2013-11-19 02:22:00,
2013-11-18 19:42:00,34.0,25.0,29.76,South,178,0.0,0.0,69,0.00,,,0.00,,2013-11-19 02:42:00,
2013-11-18 19:52:00,34.0,26.0,29.76,South,178,3.0,5.0,73,0.00,,,0.00,,2013-11-19 02:52:00,
2013-11-18 20:11:00,36.0,27.0,29.77,South,181,0.0,6.0,70,0.00,,,0.00,,2013-11-19 03:11:00,
2013-11-18 20:21:00,36.0,26.0,29.77,South,181,0.0,0.0,67,0.00,,,0.00,,2013-11-19 03:21:00,
2013-11-18 20:43:00,35.0,26.0,29.76,South,181,1.0,3.0,68,0.00,,,0.00,,2013-11-19 03:43:00,
2013-11-18 20:54:00,34.0,25.0,29.76,South,181,0.0,0.0,70,0.00,,,0.00,,2013-11-19 03:54:00,
2013-11-18 21:13:00,33.0,25.0,29.75,South,181,0.0,0.0,73,0.00,,,0.00,,2013-11-19 04:13:00,
2013-11-18 21:23:00,33.0,25.0,29.75,South,181,0.0,0.0,73,0.00,,,0.00,,2013-11-19 04:23:00,
2013-11-18 21:42:00,32.0,25.0,29.74,South,181,0.0,0.0,75,0.00,,,0.00,,2013-11-19 04:42:00,
2013-11-18 21:52:00,32.0,26.0,29.73,South,181,0.0,3.0,77,0.00,,,0.00,,2013-11-19 04:52:00,
2013-11-18 22:22:00,33.0,27.0,29.71,South,181,0.0,0.0,77,0.00,,,0.00,,2013-11-19 05:22:00,
2013-11-18 22:43:00,33.0,26.0,29.71,South,181,0.0,3.0,76,0.00,,,0.00,,2013-11-19 05:43:00,
2013-11-18 22:53:00,32.0,26.0,29.70,South,181,0.0,4.0,77,0.00,,,0.00,,2013-11-19 05:53:00,
2013-11-18 23:21:00,30.0,25.0,29.69,South,181,0.0,2.0,80,0.00,,,0.00,,2013-11-19 06:21:00,
2013-11-18 23:52:00,28.0,23.0,29.68,South,181,0.0,0.0,81,0.00,,,0.00,,2013-11-19 06:52:00,